THY8412 EHAM-LTFM

Flight info

Callsign THY8412
Flight time N/A
Altitude 37000
Route EDUPO Z739 MISGO DCT GMH DCT EKSAK DCT SWALM DCT GASKA DCT ENITA DCT ETVIS DCT BUDEX DCT TEKNO DCT OGVUN DCT DUZLA DCT MAVIR DCT TIMUR L606 GASRU DCT RILEX
Aircraft B77W/H-SDE1E2E3FGHIJ2J3J4J5M1RWXY/LB1D1

Departure

Time 2026-04-29 13:02
Airport Amsterdam Airport Schiphol (EHAM)

Arrival

Time N/A
Airport İstanbul Airport (LTFM)
Time Latitude Longitude Altitude Speed Heading
2026-04-29 12:20 52.31218 4.76863 2 ft 0 kts 303°
2026-04-29 12:41 52.31213 4.76877 2 ft 2 kts 303°
2026-04-29 12:41 52.31205 4.76897 2 ft 2 kts 306°
2026-04-29 12:41 52.31195 4.76915 2 ft 2 kts 324°
2026-04-29 12:41 52.31182 4.76927 2 ft 2 kts 339°
2026-04-29 12:42 52.31167 4.76933 2 ft 2 kts 354°
2026-04-29 12:42 52.31152 4.76934 2 ft 2 kts
2026-04-29 12:42 52.31137 4.76928 2 ft 2 kts 23°
2026-04-29 12:42 52.31128 4.76920 2 ft 0 kts 33°
2026-04-29 12:43 52.31125 4.76917 2 ft 0 kts 34°
2026-04-29 12:45 52.31128 4.76920 2 ft 2 kts 34°
2026-04-29 12:46 52.31161 4.76955 2 ft 8 kts 33°
2026-04-29 12:46 52.31228 4.77027 2 ft 14 kts 34°
2026-04-29 12:46 52.31326 4.77132 2 ft 19 kts 33°
2026-04-29 12:46 52.31459 4.77196 2 ft 22 kts
2026-04-29 12:47 52.31572 4.77111 2 ft 19 kts 272°
2026-04-29 12:47 52.31562 4.76897 2 ft 18 kts 266°
2026-04-29 12:47 52.31556 4.76695 2 ft 17 kts 268°
2026-04-29 12:47 52.31550 4.76507 2 ft 16 kts 267°
2026-04-29 12:48 52.31544 4.76330 2 ft 15 kts 267°
2026-04-29 12:48 52.31540 4.76194 2 ft 11 kts 267°
2026-04-29 12:48 52.31535 4.76058 2 ft 14 kts 266°
2026-04-29 12:48 52.31528 4.75869 3 ft 18 kts 267°
2026-04-29 12:49 52.31520 4.75639 3 ft 22 kts 266°
2026-04-29 12:49 52.31511 4.75362 3 ft 25 kts 267°
2026-04-29 12:49 52.31500 4.75054 3 ft 29 kts 265°
2026-04-29 12:49 52.31488 4.74736 3 ft 17 kts 267°
2026-04-29 12:50 52.31484 4.74589 3 ft 0 kts 268°
2026-04-29 12:51 52.31484 4.74577 3 ft 5 kts 268°
2026-04-29 12:52 52.31480 4.74442 3 ft 18 kts 267°
2026-04-29 12:52 52.31557 4.74294 3 ft 21 kts
2026-04-29 12:52 52.31703 4.74307 2 ft 20 kts
2026-04-29 12:52 52.31839 4.74321 2 ft 18 kts
2026-04-29 12:53 52.31964 4.74333 2 ft 17 kts
2026-04-29 12:53 52.32032 4.74223 2 ft 16 kts 273°
2026-04-29 12:53 52.32039 4.74002 2 ft 22 kts 274°
2026-04-29 12:53 52.32045 4.73705 2 ft 28 kts 274°
2026-04-29 12:54 52.32073 4.73396 2 ft 25 kts 306°
2026-04-29 12:54 52.32188 4.73204 2 ft 22 kts 319°
2026-04-29 12:54 52.32301 4.73047 2 ft 20 kts 320°
2026-04-29 12:54 52.32407 4.72905 2 ft 18 kts 321°
2026-04-29 12:55 52.32503 4.72777 2 ft 17 kts 321°
2026-04-29 12:55 52.32589 4.72659 3 ft 15 kts 319°
2026-04-29 12:55 52.32665 4.72551 3 ft 13 kts 319°
2026-04-29 12:55 52.32726 4.72438 3 ft 12 kts 309°
2026-04-29 12:56 52.32781 4.72328 3 ft 12 kts 310°
2026-04-29 12:56 52.32836 4.72225 3 ft 11 kts 311°
2026-04-29 12:56 52.32887 4.72132 3 ft 10 kts 312°
2026-04-29 12:56 52.32937 4.72044 3 ft 10 kts 313°
2026-04-29 12:57 52.32981 4.71960 2 ft 9 kts 309°
2026-04-29 12:57 52.33022 4.71879 2 ft 9 kts 309°
2026-04-29 12:57 52.33061 4.71800 2 ft 8 kts 309°
2026-04-29 12:57 52.33112 4.71704 2 ft 14 kts 311°
2026-04-29 12:58 52.33166 4.71569 2 ft 10 kts 263°
2026-04-29 12:58 52.33109 4.71463 2 ft 16 kts 220°
2026-04-29 12:58 52.32998 4.71297 2 ft 26 kts 223°
2026-04-29 12:58 52.32880 4.71120 2 ft 16 kts 233°
2026-04-29 12:59 52.32867 4.71067 2 ft 0 kts 258°
2026-04-29 13:01 52.32864 4.71029 2 ft 10 kts 267°
2026-04-29 13:01 52.32923 4.70899 2 ft 22 kts 356°
2026-04-29 13:02 52.33269 4.70922 2 ft 95 kts
2026-04-29 13:02 52.34255 4.71020 139 ft 176 kts
2026-04-29 13:02 52.35479 4.71125 1333 ft 184 kts
2026-04-29 13:02 52.36620 4.71235 2532 ft 171 kts 12°
2026-04-29 13:03 52.37873 4.71371 3155 ft 189 kts 12°
2026-04-29 13:03 52.39245 4.71505 3877 ft 204 kts 11°
2026-04-29 13:03 52.40702 4.71645 4607 ft 219 kts 10°
2026-04-29 13:03 52.42225 4.72062 5302 ft 230 kts 25°
2026-04-29 13:04 52.43684 4.73255 6034 ft 237 kts 34°
2026-04-29 13:04 52.45118 4.74573 6325 ft 238 kts 34°
2026-04-29 13:04 52.46517 4.75976 6357 ft 236 kts 43°
2026-04-29 13:04 52.47576 4.77994 6366 ft 234 kts 62°
2026-04-29 13:05 52.48106 4.80476 6359 ft 231 kts 81°
2026-04-29 13:05 52.48291 4.83080 6365 ft 230 kts 84°
2026-04-29 13:05 52.48442 4.85734 6452 ft 245 kts 84°
2026-04-29 13:05 52.48503 4.88460 7561 ft 244 kts 94°
2026-04-29 13:06 52.48071 4.91121 8646 ft 249 kts 111°
2026-04-29 13:06 52.47079 4.93537 9302 ft 271 kts 131°
2026-04-29 13:06 52.45544 4.95448 10210 ft 282 kts 142°
2026-04-29 13:06 52.43924 4.97212 11105 ft 291 kts 141°
2026-04-29 13:07 52.42204 4.99153 11759 ft 308 kts 141°
2026-04-29 13:07 52.40403 5.01225 12453 ft 325 kts 140°
2026-04-29 13:07 52.38543 5.03376 13136 ft 340 kts 141°
2026-04-29 13:07 52.36566 5.05662 13817 ft 356 kts 141°
2026-04-29 13:08 52.34503 5.08060 14528 ft 371 kts 139°
2026-04-29 13:08 52.32574 5.10882 15184 ft 383 kts 130°
2026-04-29 13:08 52.30761 5.14140 15897 ft 396 kts 128°
2026-04-29 13:08 52.28924 5.17490 16847 ft 403 kts 128°
2026-04-29 13:09 52.27031 5.20937 17788 ft 410 kts 128°
2026-04-29 13:09 52.25122 5.24408 18725 ft 416 kts 128°
2026-04-29 13:09 52.23365 5.28080 19673 ft 418 kts 122°
2026-04-29 13:09 52.21684 5.31950 20678 ft 422 kts 121°
2026-04-29 13:10 52.20001 5.35840 21659 ft 425 kts 121°
2026-04-29 13:10 52.18296 5.39771 22583 ft 429 kts 121°
2026-04-29 13:10 52.16572 5.43739 23466 ft 433 kts 121°
2026-04-29 13:10 52.14822 5.47757 24350 ft 437 kts 121°
2026-04-29 13:11 52.13065 5.51781 25205 ft 441 kts 121°
2026-04-29 13:11 52.11297 5.55826 26075 ft 444 kts 121°
2026-04-29 13:11 52.09510 5.59905 26900 ft 448 kts 120°
2026-04-29 13:11 52.07702 5.64029 27676 ft 452 kts 120°
2026-04-29 13:12 52.05821 5.68152 28417 ft 459 kts 124°
2026-04-29 13:12 52.03732 5.72123 29167 ft 465 kts 126°
2026-04-29 13:12 52.01624 5.76052 29978 ft 468 kts 126°
2026-04-29 13:12 52.00248 5.78608 30610 ft 466 kts 125°
2026-04-29 13:13 51.98143 5.82516 31687 ft 461 kts 125°
2026-04-29 13:13 51.96259 5.86018 32596 ft 457 kts 125°
2026-04-29 13:13 51.94051 5.90136 33436 ft 455 kts 125°
2026-04-29 13:13 51.91972 5.94013 34078 ft 456 kts 124°
2026-04-29 13:14 51.89903 5.97865 34670 ft 457 kts 124°
2026-04-29 13:14 51.87819 6.01740 35196 ft 456 kts 124°
2026-04-29 13:14 51.85930 6.05246 35625 ft 456 kts 125°
2026-04-29 13:14 51.83775 6.09227 36076 ft 456 kts 125°
2026-04-29 13:15 51.81829 6.12802 36418 ft 457 kts 125°
2026-04-29 13:15 51.79719 6.16672 36761 ft 459 kts 126°
2026-04-29 13:15 51.77747 6.20284 37124 ft 461 kts 126°
2026-04-29 13:15 51.75910 6.23646 37320 ft 464 kts 126°
2026-04-29 13:16 51.73499 6.28044 37316 ft 463 kts 126°
2026-04-29 13:16 51.69255 6.35767 37319 ft 463 kts 126°
2026-04-29 13:17 51.64994 6.43500 37309 ft 463 kts 126°
2026-04-29 13:17 51.60737 6.51206 37304 ft 463 kts 126°
2026-04-29 13:18 51.56442 6.58960 37314 ft 465 kts 126°